DW5065 Weather Reports


time (UTC)temp
C
wind
direction
speed
KPH
gust
KPH
rain 1hr
cm
rain 24hr
cm
rain mn
cm
humidity
%
barometer
mb
20260507030904 8 0 0.0 0.0 0.08 1.40 1.40 95 1007.1
20260507030004 8 0 0.0 0.0 0.08 1.40 1.40 95 1007.2
20260507025424 8 0 0.0 0.0 0.08 1.40 1.40 95 1007.2
20260507024504 8 0 0.0 0.0 0.10 1.40 1.40 94 1007.3
20260507023603 8 0 0.0 0.0 0.10 1.40 1.40 94 1007.4
20260507022703 8 0 0.0 0.0 0.08 1.37 1.37 94 1007.4
20260507021803 9 0 0.0 0.0 0.08 1.35 1.35 94 1007.5
20260507020903 9 0 0.0 0.0 0.05 1.32 1.32 94 1007.2
20260507020024 9 0 0.0 0.0 0.05 1.32 1.32 94 1007.3
20260507015403 9 0 0.0 0.0 0.05 1.32 1.32 94 1007.3
20260507014503 9 0 0.0 0.0 0.03 1.30 1.30 94 1007.1
20260507013624 9 0 0.0 0.0 0.05 1.30 1.30 94 1007.1
20260507012703 10 0 0.0 0.0 0.05 1.30 1.30 94 1006.9
20260507011824 10 0 0.0 0.0 0.03 1.27 1.27 94 1006.7
20260507010004 10 0 0.0 0.0 0.03 1.27 1.27 94 1006.4
20260507005403 10 0 0.0 0.0 0.03 1.27 1.27 94 1006.4
20260507004503 10 0 0.0 0.0 0.03 1.27 1.27 94 1006.1
20260507003603 11 0 0.0 0.0 0.00 1.24 1.24 94 1005.9
20260507002703 11 0 0.0 0.0 0.00 1.24 1.24 94 1005.7
20260507001803 11 324 0.0 1.6 0.00 1.24 1.24 94 1005.5
20260507000903 11 0 0.0 0.0 0.00 1.24 1.24 94 1005.1
20260507000003 12 0 0.0 0.0 0.03 1.24 1.24 94 1004.9
20260506235403 12 0 0.0 0.0 0.05 1.24 1.24 94 1004.7
20260506234503 12 0 0.0 0.0 0.08 1.24 1.24 94 1004.6
20260506233603 12 0 0.0 0.0 0.10 1.24 1.24 95 1004.3
20260506232702 13 0 0.0 0.0 0.10 1.24 1.24 95 1004.0
20260506231810 13 0 0.0 0.0 0.10 1.24 1.24 95 1004.0
20260506230904 13 0 0.0 0.0 0.10 1.24 1.24 95 1003.8
20260506230004 14 308 0.0 3.2 0.08 1.22 1.22 95 1003.4
20260506225425 14 308 0.0 3.2 0.05 1.19 1.19 95 1003.4
20260506224503 15 0 0.0 0.0 0.10 1.17 1.17 96 1003.1
20260506223603 15 0 0.0 0.0 0.15 1.14 1.14 96 1003.0
20260506222703 15 162 0.0 4.8 0.20 1.14 1.14 96 1003.0
20260506221803 15 191 0.0 6.4 0.20 1.14 1.14 95 1002.9
20260506220903 15 228 0.0 3.2 0.23 1.14 1.14 96 1002.9
20260506220003 15 0 0.0 0.0 0.23 1.14 1.14 96 1002.9
20260506215403 15 0 0.0 0.0 0.23 1.14 1.14 95 1003.0
20260506214503 15 0 0.0 0.0 0.15 1.07 1.07 95 1003.0
20260506213603 15 309 0.0 6.4 0.08 0.99 0.99 95 1002.8
20260506212703 15 327 0.0 4.8 0.05 0.97 0.94 95 1002.8
20260506211824 15 224 0.0 8.0 0.05 0.99 0.94 96 1002.6
20260506210903 15 0 0.0 0.0 0.05 0.99 0.91 96 1002.6
20260506210004 15 234 0.0 4.8 0.08 1.04 0.91 96 1002.7
20260506205403 15 205 0.0 6.4 0.10 1.04 0.91 96 1002.8
20260506204503 15 159 0.0 9.7 0.15 1.04 0.91 96 1002.8
20260506203603 15 167 0.0 9.7 0.23 1.04 0.91 95 1002.8
20260506202703 15 143 0.0 17.7 0.28 1.02 0.89 95 1002.9
20260506201803 15 0 0.0 0.0 0.38 1.02 0.89 95 1003.0
20260506200903 15 0 0.0 0.0 0.41 0.99 0.86 95 1003.2
20260506200003 15 0 0.0 0.0 0.38 0.97 0.84 95 1003.2
20260506195403 15 0 0.0 0.0 0.38 0.94 0.81 95 1003.3
20260506194503 15 0 0.0 0.0 0.33 0.89 0.76 95 1003.4
20260506193604 15 0 0.0 0.0 0.28 0.81 0.69 95 1003.5
20260506192703 15 0 0.0 0.0 0.23 0.74 0.61 95 1003.5
20260506191824 15 0 0.0 0.0 0.18 0.64 0.53 95 1003.6
20260506190924 15 0 0.0 0.0 0.13 0.58 0.46 95 1003.7
20260506190024 16 0 0.0 0.0 0.15 0.58 0.46 95 1003.7
20260506185424 15 0 0.0 0.0 0.13 0.56 0.43 95 1003.9
20260506184503 15 279 0.0 1.6 0.15 0.56 0.43 94 1003.9
20260506183624 15 0 0.0 0.0 0.15 0.53 0.41 94 1003.9
20260506182703 15 0 0.0 0.0 0.18 0.51 0.38 94 1004.1
20260506181804 15 0 0.0 0.0 0.15 0.46 0.33 94 1004.2
20260506180903 15 0 0.0 0.0 0.15 0.46 0.33 94 1004.3
20260506180004 15 0 0.0 0.0 0.15 0.43 0.30 93 1004.5
20260506175404 15 0 0.0 0.0 0.18 0.43 0.30 93 1004.6
20260506174503 15 0 0.0 0.0 0.18 0.41 0.28 93 1004.8
20260506173624 16 99 0.0 1.6 0.18 0.38 0.25 93 1005.1
20260506172703 16 0 0.0 0.0 0.15 0.33 0.20 93 1005.3
20260506171803 16 0 0.0 0.0 0.13 0.30 0.18 92 1005.2
20260506170904 16 0 0.0 0.0 0.15 0.30 0.18 92 1005.3
20260506170003 16 0 0.0 0.0 0.13 0.28 0.15 91 1005.2
20260506165403 16 0 0.0 0.0 0.10 0.25 0.13 91 1005.2
20260506164504 16 0 0.0 0.0 0.08 0.23 0.10 91 1005.1
20260506163624 16 0 0.0 0.0 0.05 0.20 0.08 90 1005.3
20260506162703 16 0 0.0 0.0 0.05 0.18 0.05 89 1005.5
20260506161803 16 0 0.0 0.0 0.05 0.18 0.05 89 1005.5
20260506160903 16 0 0.0 0.0 0.03 0.15 0.03 88 1005.6
20260506160003 16 0 0.0 0.0 0.03 0.15 0.03 88 1005.6
20260506155424 16 0 0.0 0.0 0.03 0.15 0.03 88 1005.7
20260506154503 16 0 0.0 0.0 0.03 0.15 0.03 88 1005.9
20260506153624 16 0 0.0 0.0 0.03 0.15 0.03 88 1006.2
20260506152703 16 0 0.0 0.0 0.00 0.13 0.00 87 1006.3
20260506151824 16 0 0.0 0.0 0.00 0.13 0.00 86 1006.6
20260506150903 16 0 0.0 0.0 0.00 0.13 0.00 84 1006.7
20260506150003 16 0 0.0 0.0 0.00 0.13 0.00 83 1006.9
20260506145404 16 0 0.0 0.0 0.00 0.13 0.00 83 1007.0
20260506144503 16 0 0.0 0.0 0.00 0.13 0.00 83 1006.7
20260506143624 16 0 0.0 0.0 0.00 0.13 0.00 83 1006.6
20260506142703 16 0 0.0 0.0 0.00 0.13 0.00 84 1006.4
20260506141803 16 0 0.0 0.0 0.00 0.13 0.00 84 1006.5
20260506140903 16 0 0.0 0.0 0.00 0.13 0.00 84 1006.6
20260506140002 16 0 0.0 0.0 0.00 0.13 0.00 85 1006.6
20260506135404 16 0 0.0 0.0 0.00 0.13 0.00 85 1006.6
20260506134504 15 0 0.0 0.0 0.00 0.13 0.00 86 1006.6
20260506133603 15 0 0.0 0.0 0.00 0.13 0.00 88 1006.7
20260506132704 15 0 0.0 0.0 0.00 0.13 0.00 88 1006.6
20260506131803 15 0 0.0 0.0 0.00 0.13 0.00 88 1006.8
20260506130903 15 0 0.0 0.0 0.00 0.13 0.00 89 1007.1
20260506130003 14 0 0.0 0.0 0.00 0.13 0.00 90 1007.3
20260506125403 14 0 0.0 0.0 0.00 0.13 0.00 91 1007.4
20260506124503 14 0 0.0 0.0 0.00 0.13 0.00 91 1007.4
20260506123603 13 0 0.0 0.0 0.00 0.13 0.00 91 1007.5
20260506122724 13 0 0.0 0.0 0.00 0.13 0.00 91 1006.8
20260506121803 13 0 0.0 0.0 0.00 0.13 0.00 92 1006.9
20260506120903 13 0 0.0 0.0 0.00 0.13 0.00 93 1007.0
20260506120003 13 0 0.0 0.0 0.00 0.13 0.00 93 1007.1
20260506115403 13 0 0.0 0.0 0.00 0.13 0.00 94 1007.2
20260506114503 12 0 0.0 0.0 0.00 0.13 0.00 94 1007.3
20260506113603 12 0 0.0 0.0 0.00 0.13 0.00 94 1007.4
20260506112704 12 0 0.0 0.0 0.00 0.13 0.00 95 1007.2
20260506111803 12 0 0.0 0.0 0.00 0.13 0.00 94 1007.2
20260506110903 12 0 0.0 0.0 0.00 0.13 0.00 94 1007.2
20260506110003 11 0 0.0 0.0 0.00 0.13 0.00 94 1007.4
20260506105424 11 0 0.0 0.0 0.00 0.13 0.00 94 1007.3
20260506104524 11 0 0.0 0.0 0.00 0.13 0.00 94 1007.1
20260506103603 11 0 0.0 0.0 0.00 0.13 0.00 94 1007.0
20260506102724 11 0 0.0 0.0 0.00 0.13 0.00 94 1007.2
20260506101824 11 0 0.0 0.0 0.00 0.13 0.00 93 1007.1
20260506100903 11 0 0.0 0.0 0.00 0.13 0.00 93 1007.3
20260506100003 11 0 0.0 0.0 0.00 0.13 0.00 93 1007.0
20260506095403 11 0 0.0 0.0 0.00 0.13 0.00 92 1007.3
20260506094503 11 0 0.0 0.0 0.00 0.13 0.00 92 1007.1
20260506093603 11 0 0.0 0.0 0.00 0.13 0.00 92 1007.1
20260506092703 11 0 0.0 0.0 0.00 0.13 0.00 92 1007.0
20260506091804 12 0 0.0 0.0 0.00 0.13 0.00 92 1007.0
20260506090903 12 0 0.0 0.0 0.00 0.13 0.00 91 1006.9
20260506090003 12 0 0.0 0.0 0.00 0.13 0.00 91 1007.2
20260506085403 12 0 0.0 0.0 0.00 0.13 0.00 91 1007.0
20260506084503 12 0 0.0 0.0 0.00 0.13 0.00 91 1007.2
20260506083603 12 0 0.0 0.0 0.00 0.13 0.00 91 1007.3
20260506082724 12 0 0.0 0.0 0.00 0.13 0.00 91 1007.3
20260506081803 12 0 0.0 0.0 0.00 0.13 0.00 90 1007.4
20260506080903 12 0 0.0 0.0 0.00 0.13 0.00 90 1007.6
20260506072703 13 0 0.0 0.0 0.00 0.13 0.00 91 1007.4
20260506071803 13 0 0.0 0.0 0.00 0.13 0.00 91 1007.6
20260506070903 13 0 0.0 0.0 0.00 0.13 0.00 91 1007.4
20260506061803 13 0 0.0 0.0 0.00 0.13 0.00 93 1007.3
20260506060903 13 0 0.0 0.0 0.00 0.13 0.00 93 1007.2
20260506050903 14 0 0.0 0.0 0.00 0.13 0.00 95 1007.3
20260506044503 14 0 0.0 0.0 0.00 0.13 0.00 95 1007.1
20260506043603 14 0 0.0 0.0 0.00 0.13 0.00 95 1007.2
20260506042703 14 0 0.0 0.0 0.00 0.13 0.00 95 1007.0
20260506041803 14 0 0.0 0.0 0.00 0.13 0.00 95 1007.1
20260506040903 14 0 0.0 0.0 0.00 0.13 0.00 94 1006.8
20260506040003 14 0 0.0 0.0 0.00 0.13 0.00 94 1006.8
20260506035403 14 0 0.0 0.0 0.00 0.13 0.13 94 1006.8
20260506034503 14 0 0.0 0.0 0.00 0.13 0.13 94 1006.9
20260506033603 14 0 0.0 0.0 0.00 0.13 0.13 94 1006.9
20260506032724 14 0 0.0 0.0 0.00 0.13 0.13 94 1006.9
20260506031803 14 0 0.0 0.0 0.00 0.13 0.13 94 1007.0